Barbells For Boobs

Age Group Results

October 17, 2015


Results By Pro-Fit Event Services LLC - Belton, TX Pro-Fit Event Services LLC


Men: Top Finishers 1-99
Women: Top Finishers 1-99

5K

Top

Female Open Winners

Place Name City Bib No Age Overall Total Time Pace
1 Hailey Gibbons Belton TX 31 24 3 20:13.5 6:31/M
2 Maggie Ingell Harker Heights TX 30 23 8 21:16.6 6:52/M
3 Emily Del Real Belton TX 81 17 13 22:17.3 7:11/M
Top

Male Open Winners

Place Name City Bib No Age Overall Total Time Pace
1 Celester Harrison Belton TX 176 44 1 19:41.7 6:21/M
2 Lance Gay Belton TX 42 45 2 19:54.9 6:25/M
3 Bentley Phillips Belton TX 177 28 4 20:28.5 6:36/M
Top

Female 99 and Under

Place Name City Bib No Age Overall Total Time Pace
1 Hailey Gibbons Belton TX 31 24 3 20:13.5 6:31/M
2 Maggie Ingell Harker Heights TX 30 23 8 21:16.6 6:52/M
3 Emily Del Real Belton TX 81 17 13 22:17.3 7:11/M
4 Dharma Gutierrez Belton TX 143 16 15 22:23.7 7:13/M
5 Destinee Batista Temple TX 90 16 16 22:23.8 7:13/M
6 Mckenna Thompson Belton TX 85 16 17 22:24.6 7:14/M
7 Maria Martinez Belton TX 73 16 18 22:27.5 7:15/M
8 Heather Smith Jefferson City MO 112 28 19 22:54.3 7:23/M
9 Olivia Fullenwider Belton TX 70 16 23 23:48.6 7:41/M
10 Latisha Salazar Temple TX 117 25 27 24:25.0 7:53/M
11 Paige Hoellen Salado TX 97 33 28 24:48.4 8:00/M
12 Jessica Long Belton TX 171 39 29 25:09.5 8:07/M
13 Kelly Austin Temple TX 135 35 30 25:19.2 8:10/M
14 Wendy Puccio Belton TX 114 38 33 26:17.9 8:29/M
15 Mariesa Kanetzky Florence TX 165 48 34 26:29.0 8:33/M
16 Shelly Gazette Temple TX 1 43 35 26:35.7 8:35/M
17 Dowdy Liz Salado TX 175 28 36 27:05.8 8:44/M
18 Ret Carruthers Georgetown TX 111 56 38 27:27.9 8:51/M
19 Laurin McGinniss Travis TX 2 30 40 27:42.5 8:56/M
20 Justine Beeson Killeen TX 49 31 41 27:46.1 8:57/M
21 Dani Black Temple TX 18 30 42 27:51.0 8:59/M
22 Leslie White Temple TX 119 48 44 27:55.9 9:00/M
23 Elizabeth Pare Temple TX 86 17 45 28:02.6 9:03/M
24 Meghan Pare Temple TX 89 23 47 28:19.9 9:08/M
25 Leila Diaz Temple TX 11 37 48 28:36.9 9:14/M
26 Daisy Mae Estrada Temple TX 47 33 50 28:50.6 9:18/M
27 Katie Estell Belton TX 46 34 51 28:52.9 9:19/M
28 Catherine Carrera Belton TX 144 43 53 29:08.9 9:24/M
29 Julia Carruthers Georgetown TX 148 21 54 29:15.1 9:26/M
30 Priscilla Ontiveros Temple TX 150 31 56 29:27.6 9:30/M
31 Sarah Humphrey Salado TX 157 38 58 29:41.6 9:35/M
32 Jennifer Bestick Temple TX 160 30 59 29:45.8 9:36/M
33 Kelly Goldston Belton TX 51 45 61 30:14.8 9:45/M
34 Marighny Dutton Woodway TX 67 33 62 30:15.3 9:45/M
35 Khaki Dobbs Lorena TX 40 38 63 30:15.7 9:45/M
36 Rachel Calhoun Temple TX 37 27 64 30:24.5 9:48/M
37 Katie Kelley Killeen TX 146 31 65 30:26.0 9:49/M
38 Tamara Hedberg Temple TX 41 45 66 30:28.9 9:50/M
39 Katie Hermann Temple TX 152 45 68 30:41.3 9:54/M
40 Timea Morgan Temple TX 27 40 69 30:49.1 9:56/M
41 Laura Betik Temple TX 80 27 70 30:53.5 9:58/M
42 Lauren Hoover Temple TX 151 22 71 30:58.4 9:59/M
43 Kristy Decker Temple TX 159 36 72 31:08.2 10:03/M
44 Alison Moseley Temple TX 131 13 73 31:15.7 10:05/M
45 Brigitte Allen Temple TX 118 50 74 31:26.7 10:08/M
46 Ashley Paulsen Killeen TX 28 23 75 31:50.4 10:16/M
47 Nancy McDonald Temple TX 17 55 76 32:23.0 10:27/M
48 Tommora Jackson Fort Worth TX 99 33 79 32:45.0 10:34/M
49 Magda Ortiz Temple TX 24 37 80 32:46.1 10:34/M
50 Lindsay Heller Lorena TX 104 26 82 32:50.9 10:35/M
51 Teresa Pare Temple TX 88 56 83 33:05.8 10:40/M
52 Ginger Calem Georgetown TX 71 45 85 33:16.4 10:44/M
53 Belinda Richardson Killeen TX 64 42 86 33:18.5 10:45/M
54 Melanie Smith Harker Heights TX 59 35 87 33:22.5 10:46/M
55 Anna Musulin Temple TX 62 37 88 33:28.2 10:48/M
56 Stacie Ball Plano TX 140 45 89 34:03.2 10:59/M
57 Lorie Creech Georgetown TX 82 44 90 34:43.4 11:12/M
58 Maria Castr0 Killeen TX 178 23 91 35:05.5 11:19/M
59 Pat Cummings Killeen TX 170 64 92 35:29.9 11:27/M
60 Megan Leighman Killeen TX 95 39 93 35:30.2 11:27/M
61 Danielle McNiel Temple TX 121 25 94 35:50.8 11:34/M
62 Ainslee Bowers Temple TX 101 40 95 36:39.0 11:49/M
63 Ashley Duran Temple TX 174 13 96 36:42.3 11:50/M
64 Karen Kahlig Rogers TX 103 46 97 36:53.0 11:54/M
65 Mandy Kennedy Temple TX 167 31 99 38:02.7 12:16/M
66 Jessica Napolez Temple TX 166 30 100 38:02.8 12:16/M
67 Ronata Staten Harker Heights TX 141 46 102 38:52.8 12:32/M
68 Teresa Del Real Belton TX 84 51 103 39:21.9 12:42/M
69 Laura Calhoun Temple TX 156 54 104 39:28.9 12:44/M
70 Sascha Howard Temple TX 130 41 105 39:59.3 12:54/M
71 Jessica Lucksinger Temple TX 164 40 106 40:20.2 13:01/M
72 Beverly Hejl Temple TX 149 26 107 40:20.6 13:01/M
73 Danielle Smith Temple TX 128 30 108 41:01.1 13:14/M
74 Jenn Powers Killeen TX 39 35 109 41:30.8 13:23/M
75 Amber Bartek Temple TX 124 32 110 42:06.7 13:35/M
76 Savanna Brooks Temple TX 127 20 111 42:51.0 13:49/M
77 Samantha Cox Temple TX 126 42 112 42:51.0 13:49/M
78 Stacy Whitley Belton TX 53 39 113 43:02.0 13:53/M
79 Lisa Green Harker Heights TX 45 38 114 43:07.9 13:55/M
80 Renee Michaels Killeen TX 44 43 115 43:55.8 14:10/M
81 Elizabeth Vera Harker Heights TX 32 34 117 44:14.8 14:16/M
82 Dionely Rodriguez Temple TX 108 40 118 46:03.4 14:51/M
83 Dawn Sprage Temple TX 109 44 119 46:03.9 14:51/M
84 Sandra Galindo Temple TX 132 45 120 47:59.0 15:29/M
85 Terri Holwerda Temple TX 125 53 121 47:59.7 15:29/M
86 Kathy Pomerenke Temple TX 61 61 122 48:35.0 15:40/M
87 Rachel Patrick Belton KS 3 25 125 49:23.2 15:56/M
88 Kim Godin Fort Worth TX 63 50 126 49:28.8 15:57/M
89 Jennifer Robinson Temple TX 145 27 127 49:30.0 15:58/M
90 Jo Anne Trower Harker Heights TX 29 60 128 49:30.9 15:58/M
91 Kathy Tipton Temple TX 23 57 129 49:31.1 15:58/M
92 Shauna Farmer Belton TX 161 38 130 50:34.5 16:19/M
93 Lavonna Constance Belton TX 19 46 131 50:36.3 16:19/M
94 Irene Navichoque Temple TX 129 48 132 50:36.4 16:19/M
95 Tiffanie Vannatta Belton TX 75 42 133 50:36.5 16:19/M
96 Hayley Constance Temple TX 69 22 134 50:36.9 16:19/M
97 Stacy Williams Rogers TX 7 31 135 50:39.4 16:20/M
98 Maggie Salinas Belton TX 76 47 136 52:57.8 17:05/M
99 Dolores Gloria Belton TX 78 67 137 52:59.0 17:05/M
100 Gloria Gloria Belton TX 77 39 138 53:00.1 17:06/M
101 Mandi Wilson Belton TX 162 26 140 53:16.6 17:11/M
102 Kelsie Kaminska Killeen TX 169 16 141 53:19.8 17:12/M
103 Ashley Barrett Temple TX 133 27 142 53:27.1 17:15/M
104 Tonya Duran Temple TX 123 41 143 54:00.8 17:25/M
105 Rosa Salinas Belton TX 66 27 144 58:11.4 18:46/M
106 Cherese Walker Temple TX 122 49 145 58:40.2 18:55/M
Top

Male 99 and Under

Place Name City Bib No Age Overall Total Time Pace
1 Celester Harrison Belton TX 176 44 1 19:41.7 6:21/M
2 Lance Gay Belton TX 42 45 2 19:54.9 6:25/M
3 Bentley Phillips Belton TX 177 28 4 20:28.5 6:36/M
4 Steve Velkovski Belton TX 180 30 5 21:02.4 6:47/M
5 Andrew Lane Killeen TX 43 14 6 21:12.7 6:50/M
6 Stephen Vogel Killeen TX 58 28 7 21:13.0 6:51/M
7 Matthew Mahler Belton TX 181 17 9 21:18.9 6:52/M
8 Cavanary Kory Belton TX 172 31 10 21:19.6 6:53/M
9 Joseph Hermann Temple TX 154 17 11 22:13.2 7:10/M
10 Casey Brewer Temple TX 120 14 12 22:13.3 7:10/M
11 Abe Villarreal Belton TX 79 17 14 22:21.0 7:13/M
12 Greg Robinson Belton TX 35 45 20 23:21.9 7:32/M
13 David Hermann Temple TX 153 17 21 23:41.9 7:38/M
14 Jeremy Vasquez Temple TX 179 27 22 23:48.5 7:41/M
15 Phoenix Phillips Belton TX 113 17 24 23:53.0 7:42/M
16 Dylan Contreras Visalia CA 116 16 25 23:54.4 7:43/M
17 James Creech Georgetown TX 83 44 26 24:13.2 7:49/M
18 Jeremiah Austin Temple TX 134 38 31 25:19.9 8:10/M
19 Nick Gutierrez Harker Heights TX 158 36 32 25:59.6 8:23/M
20 Michael Finn Belton TX 21 61 37 27:14.0 8:47/M
21 Eric Puccio Belton TX 115 31 39 27:36.2 8:54/M
22 Joel Blair Temple TX 100 38 43 27:51.5 8:59/M
23 Van Bishop Belton TX 136 51 46 28:09.5 9:05/M
24 Matthew Calhoun Temple TX 36 26 49 28:37.7 9:14/M
25 Rob Chapman Belton TX 168 46 52 29:05.1 9:23/M
26 Joe Kerr Dallas TX 38 34 55 29:24.6 9:29/M
27 Clayton Bivens Temple TX 68 35 57 29:34.5 9:32/M
28 Ej Salinas Belton TX 65 27 60 29:48.8 9:37/M
29 John Pare Temple TX 87 53 67 30:37.7 9:53/M
30 Jim Calhoun Temple TX 155 56 77 32:24.1 10:27/M
31 Jacob Jackson Fort Worth TX 98 33 78 32:44.3 10:34/M
32 Michael Thomas Temple TX 25 45 81 32:47.2 10:35/M
33 William Calem Georgetown TX 72 52 84 33:15.7 10:44/M
34 William Ceniceros Harker Heights TX 33 16 98 37:43.0 12:10/M
35 Jerry Staten Harker Heights TX 142 48 101 38:52.6 12:32/M
36 Joseph Ceniceros Harker Heights TX 34 13 116 44:14.6 14:16/M
37 Zeb Pomerenke Temple TX 60 36 123 48:37.1 15:41/M
38 Tyson Patrick Belton KS 4 28 124 49:22.8 15:55/M
39 Ryan Constance Temple TX 173 16 139 53:10.6 17:09/M